Regional Weather Roundup
Issued by NWS

Home | Current Version | Previous Version | Text Only | Print | Product List | Glossary Off
Versions: 1 2 3 4 5 6 7 8 9 10 11 12 13 14 15 16 17 18 19 20 21 22 23 24 25 26 27 28 29 30 31 32 33 34 35 36 37 38 39 40 41 42 43 44 45 46 47 48 49 50

000
ASUS43 KOAX 261602
RWRNE

WEATHER ROUNDUP FOR NEBRASKA
NATIONAL WEATHER SERVICE OMAHA NE
1100 AM CDT THU APR 26 2018

NOTES: SATELLITE DATA IS BEING USED TO AUGMENT CLOUD COVER ABOVE
       12000 FEET.
       "FAIR" INDICATES FEW OR NO CLOUDS BELOW 12,000 FEET WITH NO
       SIGNIFICANT WEATHER AND/OR OBSTRUCTIONS TO VISIBILITY.


NEZ001>004-019>022-054>056-261700-
NEBRASKA PANHANDLE

CITY           SKY/WX    TMP DP  RH WIND       PRES   REMARKS
SCOTTSBLUFF    SUNNY     56  32  40 N23G29    30.25R
ALLIANCE       SUNNY     53  32  44 N25G33    30.21R
CHADRON        SUNNY     56  31  38 N17       30.24S
GORDON         FAIR      52  33  47 N21G26    30.22R
KIMBALL        PTSUNNY   51  29  41 N21G31    30.25R
SIDNEY         MOSUNNY   53  30  41 N28G36    30.23R
$$

NEZ057>060-069>072-079>082-261700-
SOUTHWEST NEBRASKA

CITY           SKY/WX    TMP DP  RH WIND       PRES   REMARKS
NORTH PLATTE   PTSUNNY   55  35  47 N22G37    30.11R
IMPERIAL       PTSUNNY   55  33  43 N32G48    30.14R
LEXINGTON      CLOUDY    55  37  52 N25G31    30.06R
MCCOOK         CLOUDY    55  37  50 N30G40    30.05R
OGALLALA       MOSUNNY   57  32  38 N28G38    30.17R
$$

NEZ005>010-023>029-035>040-094-261700-
NORTH CENTRAL NEBRASKA

CITY           SKY/WX    TMP DP  RH WIND       PRES   REMARKS
VALENTINE      SUNNY     55  28  35 N17G35    30.17R
AINSWORTH      SUNNY     53  32  44 N25G38    30.15R
BROKEN BOW     CLOUDY    52  35  52 N26G40    30.07R
O`NEILL        SUNNY     57  35  44 N31G39    30.05R
ORD            CLOUDY    53  38  56 N22G30    30.03R
THEDFORD       SUNNY     55  32  42 N24G31    30.14R
$$

NEZ041-046>049-061>064-073>077-083>087-261700-
SOUTH CENTRAL NEBRASKA

CITY           SKY/WX    TMP DP  RH WIND       PRES   REMARKS
GRAND ISLAND   SUNNY     59  40  49 NW16G24   30.01R
AURORA         SUNNY     58  40  50 NW13      29.99R
HASTINGS       SUNNY     56  41  57 NW13      30.00R
HEBRON         PTSUNNY   58  42  54 SW9       30.00S
HOLDREGE       SUNNY     58  41  53 N21G29    30.03R
KEARNEY        SUNNY     59  39  47 N25       30.03R
YORK             N/A     59  41  51 W15       29.98S
$$

NEZ011>018-030>034-042>045-261700-
NORTHEAST NEBRASKA

CITY           SKY/WX    TMP DP  RH WIND       PRES   REMARKS
NORFOLK        MOSUNNY   57  39  51 N17G28    29.95R
ALBION         CLOUDY    56  40  55 NW20      29.99R
BLAIR          CLOUDY    58  40  52 SW13      29.96R
COLUMBUS       SUNNY     58  41  53 W13G20    29.97R
FREMONT        MOSUNNY   62  41  46 SW9       29.96S
TEKAMAH        MOSUNNY   62  38  40 SW13      29.94F
WAYNE          PTSUNNY   56  38  50 NW17      29.96R
$$

NEZ050>053-065>068-078-088>093-261700-
SOUTHEAST NEBRASKA

CITY           SKY/WX    TMP DP  RH WIND       PRES   REMARKS
LINCOLN        CLOUDY    59  39  47 SW10      29.99F
OMAHA EPPLEY   CLOUDY    59  36  42 SW13      29.97S
BEATRICE       CLOUDY    57  43  58 SW6       30.00S
FALLS CITY     CLOUDY    58  42  55 W6        30.00R
NEBRASKA CITY  CLOUDY    55  45  68 W8        30.00S
PLATTSMOUTH    MOSUNNY   58  38  47 SW12G17   29.98S
$$

NEZ044-045-051>053-067-261700-
OMAHA AREA

CITY           SKY/WX    TMP DP  RH WIND       PRES   REMARKS
OMAHA EPPLEY   CLOUDY    59  36  42 SW13      29.97S
BLAIR          CLOUDY    58  40  52 SW13      29.96R
FREMONT        MOSUNNY   62  41  46 SW9       29.96S
MILLARD        MOSUNNY   57  41  54 SW8       29.97F
PLATTSMOUTH    MOSUNNY   58  38  47 SW12G17   29.98S
WAHOO          FAIR      61  36  38 SW10      29.96S
$$



USA.gov is the U.S. government's official web portal to all federal, state and local government web resources and services.